TimeCDT,TemperatureF,Dew PointF,Humidity,Sea Level PressureIn,VisibilityMPH,Wind Direction,Wind SpeedMPH,Gust SpeedMPH,PrecipitationIn,Events,Conditions,WindDirDegrees,DateUTC
12:12 AM,33.8,30.2,87,29.95,10.0,Calm,Calm,-,N/A,,Clear,0,2012-10-02 05:12:00
12:33 AM,33.8,33.8,100,29.95,10.0,Calm,Calm,-,N/A,,Clear,0,2012-10-02 05:33:00
12:53 AM,33.8,32.0,93,29.95,10.0,Calm,Calm,-,N/A,,Clear,0,2012-10-02 05:53:00
1:13 AM,33.8,30.2,87,29.95,10.0,Calm,Calm,-,N/A,,Clear,0,2012-10-02 06:13:00
1:33 AM,32.0,30.2,93,29.95,10.0,Calm,Calm,-,N/A,,Clear,0,2012-10-02 06:33:00
1:52 AM,30.2,30.2,100,29.95,10.0,Calm,Calm,-,N/A,,Clear,0,2012-10-02 06:52:00
2:13 AM,32.0,30.2,93,29.94,10.0,Calm,Calm,-,N/A,,Clear,0,2012-10-02 07:13:00
2:33 AM,30.2,28.4,93,29.94,10.0,Calm,Calm,-,N/A,,Clear,0,2012-10-02 07:33:00
2:53 AM,30.2,30.2,100,29.94,10.0,Calm,Calm,-,N/A,,Clear,0,2012-10-02 07:53:00
3:13 AM,30.2,28.4,93,29.94,10.0,Calm,Calm,-,N/A,,Clear,0,2012-10-02 08:13:00
3:33 AM,30.2,28.4,93,29.93,10.0,Calm,Calm,-,N/A,,Clear,0,2012-10-02 08:33:00
3:52 AM,28.4,28.4,100,29.94,10.0,Calm,Calm,-,N/A,,Clear,0,2012-10-02 08:52:00
3:54 AM,28.4,28.4,100,29.94,10.0,Calm,Calm,-,N/A,,Clear,0,2012-10-02 08:54:00
4:19 AM,28.4,28.4,100,29.95,10.0,Calm,Calm,-,N/A,,Clear,0,2012-10-02 09:19:00
4:47 AM,28.4,26.6,93,29.95,10.0,Calm,Calm,-,N/A,,Clear,0,2012-10-02 09:47:00
5:13 AM,28.4,26.6,93,29.95,10.0,Calm,Calm,-,N/A,,Clear,0,2012-10-02 10:13:00
5:33 AM,28.4,26.6,93,29.95,10.0,Calm,Calm,-,N/A,,Clear,0,2012-10-02 10:33:00
5:53 AM,28.4,26.6,93,29.95,10.0,Calm,Calm,-,N/A,,Clear,0,2012-10-02 10:53:00
6:13 AM,28.4,26.6,93,29.95,10.0,Calm,Calm,-,N/A,,Clear,0,2012-10-02 11:13:00
6:32 AM,28.4,26.6,93,29.95,10.0,Calm,Calm,-,N/A,,Clear,0,2012-10-02 11:32:00
6:53 AM,28.4,26.6,93,29.94,10.0,Calm,Calm,-,N/A,,Clear,0,2012-10-02 11:53:00
7:12 AM,26.6,26.6,100,29.94,10.0,Calm,Calm,-,N/A,,Clear,0,2012-10-02 12:12:00
7:33 AM,26.6,26.6,100,29.95,10.0,Calm,Calm,-,N/A,,Clear,0,2012-10-02 12:33:00
7:53 AM,28.4,26.6,93,29.95,10.0,Calm,Calm,-,N/A,,Clear,0,2012-10-02 12:53:00
8:12 AM,32.0,30.2,93,29.95,10.0,Calm,Calm,-,N/A,,Clear,0,2012-10-02 13:12:00
8:33 AM,37.4,33.8,87,29.94,10.0,Calm,Calm,-,N/A,,Clear,0,2012-10-02 13:33:00
8:53 AM,44.6,37.4,76,29.95,10.0,SSE,4.6,-,N/A,,Clear,150,2012-10-02 13:53:00
9:12 AM,46.4,37.4,71,29.94,10.0,SSE,3.5,-,N/A,,Clear,160,2012-10-02 14:12:00
9:33 AM,48.2,39.2,71,29.94,10.0,SE,4.6,-,N/A,,Clear,140,2012-10-02 14:33:00
9:53 AM,51.8,37.4,58,29.94,10.0,SSE,6.9,-,N/A,,Clear,160,2012-10-02 14:53:00
10:12 AM,53.6,37.4,54,29.94,10.0,South,5.8,-,N/A,,Clear,170,2012-10-02 15:12:00
10:33 AM,55.4,37.4,51,29.94,10.0,SSE,6.9,-,N/A,,Clear,160,2012-10-02 15:33:00
10:53 AM,57.2,37.4,48,29.92,10.0,South,8.1,-,N/A,,Clear,170,2012-10-02 15:53:00
11:12 AM,57.2,35.6,44,29.91,10.0,SSE,10.4,16.1,N/A,,Clear,160,2012-10-02 16:12:00
11:33 AM,59.0,33.8,39,29.91,10.0,South,9.2,17.3,N/A,,Clear,170,2012-10-02 16:33:00
11:53 AM,60.8,33.8,36,29.90,10.0,South,13.8,-,N/A,,Clear,180,2012-10-02 16:53:00
12:12 PM,60.8,32.0,34,29.89,10.0,SSW,10.4,17.3,N/A,,Clear,200,2012-10-02 17:12:00
12:33 PM,60.8,32.0,34,29.88,10.0,SSE,10.4,18.4,N/A,,Clear,160,2012-10-02 17:33:00
12:52 PM,62.6,33.8,34,29.87,10.0,South,11.5,18.4,N/A,,Clear,180,2012-10-02 17:52:00
1:13 PM,62.6,32.0,32,29.86,10.0,SSE,12.7,18.4,N/A,,Clear,160,2012-10-02 18:13:00
1:33 PM,62.6,33.8,34,29.85,10.0,South,8.1,11.5,N/A,,Clear,180,2012-10-02 18:33:00
1:53 PM,64.4,33.8,32,29.84,10.0,South,10.4,-,N/A,,Clear,180,2012-10-02 18:53:00
2:13 PM,64.4,33.8,32,29.84,10.0,South,13.8,20.7,N/A,,Clear,190,2012-10-02 19:13:00
2:33 PM,64.4,33.8,32,29.83,10.0,South,12.7,-,N/A,,Clear,170,2012-10-02 19:33:00
2:52 PM,64.4,33.8,32,29.82,10.0,SSE,12.7,17.3,N/A,,Clear,160,2012-10-02 19:52:00
3:13 PM,64.4,33.8,32,29.82,10.0,SSE,11.5,-,N/A,,Clear,160,2012-10-02 20:13:00
3:33 PM,64.4,32.0,30,29.81,10.0,SSE,16.1,23.0,N/A,,Clear,160,2012-10-02 20:33:00
3:53 PM,64.4,32.0,30,29.81,10.0,SSE,12.7,24.2,N/A,,Clear,160,2012-10-02 20:53:00
4:12 PM,64.4,33.8,32,29.80,10.0,South,17.3,-,N/A,,Clear,170,2012-10-02 21:12:00
4:33 PM,62.6,33.8,34,29.80,10.0,South,12.7,23.0,N/A,,Clear,170,2012-10-02 21:33:00
4:53 PM,62.6,35.6,37,29.80,10.0,South,10.4,-,N/A,,Clear,170,2012-10-02 21:53:00
5:12 PM,62.6,35.6,37,29.80,10.0,SSE,11.5,18.4,N/A,,Clear,160,2012-10-02 22:12:00
5:33 PM,60.8,39.2,45,29.80,10.0,SSE,12.7,18.4,N/A,,Clear,150,2012-10-02 22:33:00
5:53 PM,60.8,39.2,45,29.80,10.0,SSE,12.7,16.1,N/A,,Clear,150,2012-10-02 22:53:00
6:12 PM,57.2,39.2,51,29.80,10.0,SSE,12.7,-,N/A,,Clear,160,2012-10-02 23:12:00
6:33 PM,55.4,41.0,58,29.79,10.0,SSE,11.5,-,N/A,,Clear,150,2012-10-02 23:33:00
6:53 PM,55.4,39.2,54,29.79,10.0,SE,9.2,-,N/A,,Clear,140,2012-10-02 23:53:00
7:12 PM,53.6,39.2,58,29.80,10.0,SSE,9.2,-,N/A,,Clear,150,2012-10-03 00:12:00
7:33 PM,51.8,37.4,58,29.81,10.0,SSE,5.8,10.4,N/A,,Clear,160,2012-10-03 00:33:00
7:53 PM,51.8,37.4,58,29.82,10.0,South,4.6,-,N/A,,Clear,170,2012-10-03 00:53:00
8:12 PM,50.0,37.4,62,29.83,10.0,SSE,4.6,-,N/A,,Clear,160,2012-10-03 01:12:00
8:33 PM,48.2,37.4,66,29.83,10.0,SSE,6.9,-,N/A,,Clear,150,2012-10-03 01:33:00
8:53 PM,48.2,35.6,62,29.84,10.0,SSE,6.9,-,N/A,,Clear,160,2012-10-03 01:53:00
9:12 PM,46.4,35.6,66,29.85,10.0,SSE,4.6,-,N/A,,Clear,150,2012-10-03 02:12:00
9:33 PM,46.4,35.6,66,29.85,10.0,SSE,4.6,-,N/A,,Clear,150,2012-10-03 02:33:00
9:53 PM,44.6,35.6,71,29.85,10.0,Calm,Calm,-,N/A,,Clear,0,2012-10-03 02:53:00
10:12 PM,44.6,35.6,71,29.85,10.0,Calm,Calm,-,N/A,,Clear,0,2012-10-03 03:12:00
10:33 PM,44.6,35.6,71,29.85,10.0,Calm,Calm,-,N/A,,Clear,0,2012-10-03 03:33:00
10:53 PM,44.6,37.4,76,29.84,10.0,Calm,Calm,-,N/A,,Clear,0,2012-10-03 03:53:00
11:13 PM,42.8,37.4,81,29.84,10.0,Calm,Calm,-,N/A,,Clear,0,2012-10-03 04:13:00
11:33 PM,44.6,37.4,76,29.83,10.0,SSE,4.6,-,N/A,,Clear,160,2012-10-03 04:33:00
11:53 PM,44.6,37.4,76,29.83,10.0,SSE,4.6,-,N/A,,Clear,160,2012-10-03 04:53:00